TimeCDT,TemperatureF,Dew PointF,Humidity,Sea Level PressureIn,VisibilityMPH,Wind Direction,Wind SpeedMPH,Gust SpeedMPH,PrecipitationIn,Events,Conditions,WindDirDegrees,DateUTC
12:53 AM,66.0,63.0,90,29.93,10.0,Calm,Calm,-,N/A,,Partly Cloudy,0,2013-06-16 05:53:00
1:53 AM,66.0,64.0,93,29.92,10.0,South,3.5,-,N/A,,Overcast,170,2013-06-16 06:53:00
2:53 AM,66.0,64.0,93,29.93,10.0,Calm,Calm,-,N/A,,Overcast,0,2013-06-16 07:53:00
3:53 AM,66.0,63.0,90,29.93,9.0,SSW,3.5,-,N/A,,Overcast,210,2013-06-16 08:53:00
4:35 AM,66.2,64.4,94,29.95,10.0,Calm,Calm,-,N/A,,Mostly Cloudy,0,2013-06-16 09:35:00
4:53 AM,66.9,64.9,93,29.94,10.0,Calm,Calm,-,N/A,,Overcast,0,2013-06-16 09:53:00
5:21 AM,66.2,64.4,94,29.94,10.0,SSE,6.9,-,N/A,,Overcast,160,2013-06-16 10:21:00
5:53 AM,68.0,64.9,90,29.93,10.0,SSE,4.6,-,N/A,,Overcast,160,2013-06-16 10:53:00
6:25 AM,68.0,66.2,94,29.95,1.2,SSE,5.8,-,N/A,,Overcast,150,2013-06-16 11:25:00
6:53 AM,68.0,66.0,93,29.93,3.0,SSE,4.6,-,N/A,,Overcast,150,2013-06-16 11:53:00
7:53 AM,70.0,66.9,90,29.94,8.0,South,5.8,-,N/A,,Overcast,180,2013-06-16 12:53:00
8:53 AM,72.0,68.0,87,29.95,8.0,South,5.8,-,N/A,,Overcast,190,2013-06-16 13:53:00
9:47 AM,71.6,68.0,88,29.96,2.0,NNE,3.5,-,N/A,,Overcast,20,2013-06-16 14:47:00
9:53 AM,72.0,69.1,91,29.94,1.8,North,3.5,-,N/A,,Overcast,350,2013-06-16 14:53:00
10:35 AM,71.6,69.8,94,29.97,0.8,NE,3.5,-,N/A,,Overcast,40,2013-06-16 15:35:00
10:53 AM,72.0,69.1,91,29.95,0.8,NNE,3.5,-,N/A,,Overcast,30,2013-06-16 15:53:00
11:14 AM,73.4,69.8,88,29.97,2.0,NE,4.6,-,N/A,,Overcast,40,2013-06-16 16:14:00
11:38 AM,73.4,68.0,83,29.98,3.0,NE,4.6,-,N/A,,Overcast,40,2013-06-16 16:38:00
11:53 AM,73.9,69.1,85,29.96,3.0,NE,5.8,-,N/A,,Overcast,50,2013-06-16 16:53:00
12:53 PM,75.0,69.1,82,29.96,6.0,ENE,4.6,-,N/A,,Haze,70,2013-06-16 17:53:00
1:53 PM,77.0,70.0,79,29.96,9.0,ESE,6.9,-,N/A,,Overcast,110,2013-06-16 18:53:00
2:12 PM,78.8,69.8,74,29.98,9.0,Variable,4.6,-,N/A,,Mostly Cloudy,0,2013-06-16 19:12:00
2:53 PM,79.0,69.1,72,29.95,10.0,Calm,Calm,-,N/A,,Overcast,0,2013-06-16 19:53:00
3:53 PM,79.0,70.0,74,29.94,10.0,NE,4.6,-,N/A,,Overcast,50,2013-06-16 20:53:00
4:53 PM,79.0,70.0,74,29.94,10.0,NE,6.9,-,N/A,,Overcast,50,2013-06-16 21:53:00
5:53 PM,78.1,69.1,74,29.93,10.0,NNE,6.9,-,N/A,,Overcast,30,2013-06-16 22:53:00
6:53 PM,79.0,69.1,72,29.91,10.0,ENE,6.9,-,N/A,,Scattered Clouds,60,2013-06-16 23:53:00
7:53 PM,77.0,69.1,76,29.91,10.0,ENE,5.8,-,N/A,,Scattered Clouds,60,2013-06-17 00:53:00
8:53 PM,75.0,69.1,82,29.94,10.0,NE,6.9,-,N/A,,Mostly Cloudy,50,2013-06-17 01:53:00
9:53 PM,72.0,68.0,87,29.95,10.0,Calm,Calm,-,N/A,,Mostly Cloudy,0,2013-06-17 02:53:00
10:53 PM,73.0,69.1,87,29.96,10.0,East,3.5,-,N/A,,Scattered Clouds,90,2013-06-17 03:53:00
11:53 PM,73.0,69.1,87,29.94,7.0,NE,5.8,-,N/A,,Overcast,50,2013-06-17 04:53:00